{"data":{"norad_id":66149,"epoch":"2026-09-20T15:49:08.965056Z","epoch_age_seconds":86619,"freshness":"FRESH","line1":"1 66149U 25240D   26263.65913154  .00017742  00000+0  53484-3 0  9999","line2":"2 66149  53.1596 234.7571 0000656  86.0660 274.0417 15.34407719 51876","mean_motion":15.34407719,"eccentricity":6.56e-5,"inclination_deg":53.1596,"raan_deg":234.7571,"arg_perigee_deg":86.066,"mean_anomaly_deg":274.0417,"bstar":0.00053484,"rev_number":5187,"period_min":93.847285970281,"perigee_km":462.23154019384,"apogee_km":463.12905542332,"semimajor_km":6840.8172978086,"source":"CELESTRAK","updated_at":"2026-09-21T09:00:35.812774Z"}}